Regional Weather Roundup
Issued by NWS

Home | Current Version | Previous Version | Text Only | Print | Product List | Glossary On
Versions: 1 2 3 4 5 6 7 8 9 10 11 12 13 14 15 16 17 18 19 20 21 22 23 24 25 26 27 28 29 30 31 32 33 34 35 36 37 38 39 40 41 42 43 44 45 46 47 48 49 50
000
ASUS43 KOAX 250802
RWRNE

WEATHER ROUNDUP FOR NEBRASKA
NATIONAL WEATHER SERVICE OMAHA NE
300 AM CDT MON JUL 25 2016

NOTES: SATELLITE DATA IS BEING USED TO AUGMENT CLOUD COVER ABOVE
       12000 FEET.
       "FAIR" INDICATES FEW OR NO CLOUDS BELOW 12,000 FEET WITH NO
       SIGNIFICANT WEATHER AND/OR OBSTRUCTIONS TO VISIBILITY.

  * THESE STATIONS DO NOT REPORT WEATHER SUCH AS RAIN...SNOW OR FOG.

NEZ001>004-019>022-054>056-250900-
NEBRASKA PANHANDLE

CITY           SKY/WX    TMP DP  RH WIND       PRES   REMARKS
SCOTTSBLUFF    CLEAR     60  55  83 E6        30.17F
ALLIANCE       CLEAR     57  55  93 S6        30.18F
CHADRON        CLEAR     69  57  65 S9        30.13S
KIMBALL        CLEAR     58  57  95 SW7       30.22F
SIDNEY         CLEAR     52  50  93 CALM      30.22F
$$

NEZ057>060-069>072-079>082-250900-
SOUTHWEST NEBRASKA

CITY           SKY/WX    TMP DP  RH WIND       PRES   REMARKS
NORTH PLATTE   MOCLDY    63  60  90 CALM      30.13S
IMPERIAL       CLOUDY    66  59  78 E6        30.15S
LEXINGTON      CLOUDY    65  63  90 CALM      30.11S
MCCOOK         CLOUDY    67  60  78 E7        30.11F
OGALLALA       CLOUDY    64  60  86 N3        30.16R
$$

NEZ005>010-023>029-035>040-094-250900-
NORTH CENTRAL NEBRASKA

CITY           SKY/WX    TMP DP  RH WIND       PRES   REMARKS
VALENTINE      CLEAR     65  54  67 CALM      30.12F
AINSWORTH      CLEAR     62  55  79 CALM      30.13F
BROKEN BOW     PTCLDY    61  60  97 CALM      30.12F
O`NEILL        CLEAR     64  60  87 CALM      30.12F
ORD            CLEAR     62  58  86 NW5       30.09F
THEDFORD       CLOUDY    61  58  89 CALM      30.14F
$$

NEZ041-046>049-061>064-073>077-083>087-250900-
SOUTH CENTRAL NEBRASKA

CITY           SKY/WX    TMP DP  RH WIND       PRES   REMARKS
GRAND ISLAND   MOCLDY    65  63  93 NE7       30.08F
AURORA         CLOUDY    66  65  97 NE7       30.07F
HASTINGS       CLOUDY    67  63  87 NE7       30.09S
HEBRON         PTCLDY    68  64  86 NE6       30.05S
HOLDREGE       CLOUDY    67  63  89 NE5       30.10R
KEARNEY *      MOCLDY    66  61  82 NE6       30.11R
YORK           CLOUDY    64  64 100 CALM      30.08R
$$

NEZ011>018-030>034-042>045-250900-
NORTHEAST NEBRASKA

CITY           SKY/WX    TMP DP  RH WIND       PRES   REMARKS
NORFOLK        CLEAR     60  58  92 W3        30.08F
ALBION         CLOUDY    61  58  91 CALM      30.09F
BLAIR          CLEAR     68  64  88 N7        30.06S
FREMONT        PTCLDY    65  62  89 CALM      30.07S
TEKAMAH        CLEAR     62  60  93 N5        30.06S
WAYNE          CLEAR     58  57  96 CALM      30.09F
$$

NEZ050>053-065>068-078-088>093-250900-
SOUTHEAST NEBRASKA

CITY           SKY/WX    TMP DP  RH WIND       PRES   REMARKS
LINCOLN        PTCLDY    66  64  93 N6        30.06F
OMAHA EPPLEY   MOCLDY    69  64  84 N9        30.04F
BEATRICE       PTCLDY    67  64  93 NE7       30.04F
FALLS CITY     CLEAR     69  66  90 N5        30.02S
NEBRASKA CITY  CLEAR     67  67 100 N7        30.04S
PLATTSMOUTH    CLEAR     69  65  89 N5        30.05S
$$

NEZ044-045-051>053-067-250900-
OMAHA AREA

CITY           SKY/WX    TMP DP  RH WIND       PRES   REMARKS
OMAHA EPPLEY   MOCLDY    69  64  84 N9        30.04F
BLAIR          CLEAR     68  64  88 N7        30.06S
FREMONT        PTCLDY    65  62  89 CALM      30.07S
MILLARD        PTCLDY    72  64  76 CALM      30.05S
OFFUTT AFB     CLEAR     67  63  86 W1        30.04F
PLATTSMOUTH    CLEAR     69  65  89 N5        30.05S
WAHOO          FAIR      66  64  91 CALM      30.06S
$$




USA.gov is the U.S. government's official web portal to all federal, state and local government web resources and services.